QPF
0.01 0.03 0.04 0.04 0.05 0.03 0.03 0.03 0.03 0.03 0.03 0.04 0.03 0.03 0.03 0.03 0.02 0.01 0.01 0.02 0.03 0.05 0.06 0.07 0.07 0.07 0.06 0.06 0.06 0.05 0.03 0.04 0.05 0.06 0.05 0.03 0.03 0.03 0.04 0.04 0.04 0.03 0.03
0.01 0.02 0.03 0.03 0.03 0.03 0.03 0.03 0.03 0.03 0.03 0.03 0.02 0.02 0.03 0.03 0.04 0.03 0.02 0.01 0.02 0.02 0.03 0.06 0.08 0.07 0.06 0.05 0.05 0.05 0.04 0.04 0.04 0.05 0.05 0.04 0.03 0.03 0.03 0.03 0.04 0.04 0.03
0.01 0.01 0.02 0.02 0.03 0.04 0.05 0.04 0.04 0.05 0.04 0.03 0.01 0.02 0.03 0.01 0.02 0.01 0.01 0.01 0.01 0.02 0.03 0.04 0.05 0.07 0.07 0.08 0.07 0.06 0.03 0.03 0.03 0.03 0.04 0.04 0.05 0.05 0.04 0.03 0.03 0.04 0.04
0.01 0.01 0.01 0.02 0.03 0.04 0.04 0.04 0.04 0.04 0.05 0.04 0.02 0.02 0.02 0.01 0.02 0.01 0.01 0.01 0.01 0.01 0.02 0.02 0.03 0.05 0.06 0.08 0.07 0.05 0.04 0.03 0.03 0.03 0.05 0.07 0.05 0.08 0.11 0.06 0.03 0.03 0.03
0.00 0.00 0.01 0.01 0.02 0.04 0.04 0.03 0.03 0.03 0.03 0.03 0.03 0.03 0.03 0.02 0.02 0.02 0.01 0.01 0.01 0.01 0.01 0.01 0.02 0.04 0.06 0.06 0.06 0.06 0.04 0.04 0.05 0.05 0.06 0.14 0.14 0.14 0.14 0.10 0.06 0.04 0.04
0.00 0.00 0.01 0.01 0.01 0.03 0.03 0.03 0.03 0.03 0.03 0.03 0.03 0.03 0.02 0.02 0.01 0.02 0.02 0.02 0.02 0.02 0.02 0.01 0.01 0.02 0.05 0.06 0.06 0.05 0.04 0.03 0.04 0.05 0.07 0.12 0.24 0.25 0.18 0.13 0.07 0.05 0.05
0.00 0.00 0.00 0.00 0.01 0.01 0.02 0.02 0.02 0.02 0.02 0.03 0.02 0.03 0.03 0.02 0.02 0.02 0.03 0.03 0.03 0.03 0.02 0.02 0.02 0.02 0.04 0.06 0.04 0.04 0.03 0.03 0.04 0.04 0.07 0.12 0.13 0.20 0.18 0.12 0.07 0.06 0.05
0.00 0.01 0.01 0.00 0.00 0.01 0.01 0.02 0.01 0.01 0.02 0.03 0.02 0.02 0.02 0.02 0.02 0.03 0.03 0.04 0.04 0.04 0.04 0.03 0.02 0.01 0.02 0.02 0.02 0.03 0.02 0.02 0.03 0.06 0.08 0.11 0.13 0.12 0.10 0.09 0.08 0.09 0.09
0.01 0.00 0.00 0.00 0.00 0.00 0.01 0.01 0.01 0.01 0.01 0.01 0.01 0.01 0.01 0.01 0.02 0.02 0.02 0.04 0.05 0.05 0.05 0.04 0.02 0.02 0.01 0.01 0.01 0.02 0.01 0.02 0.03 0.08 0.14 0.16 0.14 0.11 0.10 0.10 0.11 0.11 0.12
0.01 0.01 0.00 0.00 0.00 0.00 0.00 0.01 0.01 0.01 0.02 0.01 0.01 0.02 0.02 0.02 0.02 0.02 0.02 0.03 0.04 0.04 0.03 0.03 0.02 0.02 0.02 0.01 0.01 0.01 0.01 0.01 0.03 0.08 0.14 0.14 0.10 0.08 0.09 0.10 0.10 0.09 0.08
0.01 0.01 0.01 0.01 0.00 0.00 0.00 0.00 0.01 0.02 0.01 0.01 0.01 0.02 0.04 0.03 0.02 0.01 0.01 0.02 0.03 0.04 0.04 0.04 0.03 0.02 0.02 0.02 0.02 0.02 0.03 0.03 0.04 0.08 0.09 0.09 0.06 0.05 0.07 0.09 0.08 0.07 0.06
0.01 0.01 0.01 0.01 0.00 0.00 0.00 0.00 0.01 0.02 0.03 0.02 0.01 0.01 0.02 0.02 0.01 0.01 0.01 0.01 0.03 0.10 0.11 0.11 0.07 0.03 0.02 0.02 0.02 0.02 0.03 0.03 0.03 0.04 0.04 0.04 0.04 0.04 0.05 0.05 0.05 0.05 0.05
0.00 0.01 0.01 0.01 0.01 0.01 0.00 0.00 0.00 0.01 0.01 0.01 0.01 0.01 0.01 0.01 0.01 0.01 0.01 0.01 0.02 0.05 0.12 0.14 0.14 0.09 0.03 0.02 0.02 0.02 0.03 0.02 0.02 0.01 0.01 0.02 0.02 0.02 0.03 0.03 0.03 0.03 0.03
0.00 0.01 0.01 0.01 0.01 0.01 0.00 0.00 0.01 0.01 0.01 0.01 0.01 0.01 0.01 0.02 0.03 0.02 0.02 0.02 0.02 0.01 0.03 0.06 0.08 0.08 0.07 0.04 0.03 0.02 0.02 0.03 0.03 0.02 0.01 0.02 0.02 0.02 0.02 0.02 0.03 0.03 0.03
0.01 0.00 0.00 0.00 0.01 0.01 0.01 0.01 0.01 0.02 0.01 0.01 0.01 0.01 0.01 0.02 0.02 0.02 0.01 0.03 0.03 0.01 0.01 0.03 0.05 0.06 0.07 0.08 0.05 0.02 0.01 0.02 0.02 0.02 0.02 0.01 0.01 0.02 0.02 0.02 0.03 0.03 0.03
0.01 0.00 0.01 0.01 0.01 0.00 0.00 0.01 0.01 0.03 0.02 0.02 0.02 0.01 0.01 0.01 0.01 0.01 0.01 0.01 0.02 0.02 0.02 0.03 0.04 0.04 0.03 0.02 0.01 0.01 0.01 0.01 0.01 0.01 0.01 0.01 0.01 0.01 0.01 0.01 0.02 0.02 0.02
0.01 0.00 0.01 0.01 0.01 0.01 0.01 0.00 0.01 0.02 0.02 0.02 0.02 0.01 0.01 0.01 0.01 0.00 0.01 0.01 0.01 0.02 0.02 0.03 0.03 0.03 0.02 0.02 0.01 0.01 0.01 0.01 0.01 0.01 0.01 0.00 0.00 0.00 0.01 0.01 0.01 0.01 0.02
0.01 0.00 0.00 0.01 0.01 0.01 0.01 0.01 0.01 0.01 0.01 0.01 0.01 0.01 0.01 0.01 0.01 0.01 0.01 0.01 0.02 0.02 0.02 0.01 0.02 0.02 0.02 0.01 0.01 0.01 0.00 0.01 0.01 0.01 0.01 0.01 0.00 0.00 0.01 0.01 0.01 0.01 0.01
0.02 0.02 0.02 0.01 0.01 0.02 0.01 0.01 0.01 0.02 0.02 0.02 0.01 0.00 0.01 0.01 0.01 0.01 0.01 0.01 0.02 0.02 0.02 0.01 0.02 0.03 0.03 0.02 0.01 0.01 0.01 0.01 0.01 0.01 0.01 0.01 0.01 0.01 0.01 0.01 0.01 0.01 0.01
0.02 0.02 0.01 0.01 0.01 0.00 0.00 0.01 0.01 0.02 0.02 0.01 0.01 0.01 0.01 0.01 0.02 0.02 0.01 0.01 0.01 0.01 0.01 0.01 0.01 0.02 0.03 0.03 0.02 0.02 0.01 0.01 0.01 0.01 0.01 0.01 0.01 0.01 0.01 0.01 0.01 0.01 0.01
0.01 0.01 0.01 0.01 0.00 0.00 0.00 0.01 0.01 0.02 0.02 0.01 0.01 0.01 0.01 0.01 0.01 0.02 0.01 0.01 0.01 0.01 0.00 0.00 0.00 0.01 0.02 0.04 0.04 0.03 0.02 0.02 0.01 0.01 0.01 0.01 0.01 0.01 0.02 0.02 0.02 0.01 0.00
0.02 0.01 0.01 0.01 0.01 0.01 0.01 0.01 0.02 0.02 0.02 0.01 0.00 0.00 0.01 0.01 0.01 0.01 0.00 0.01 0.01 0.01 0.01 0.01 0.00 0.01 0.01 0.02 0.03 0.03 0.02 0.02 0.01 0.01 0.01 0.01 0.01 0.00 0.00 0.00 0.01 0.01 0.01
0.02 0.02 0.02 0.01 0.01 0.01 0.02 0.03 0.03 0.02 0.01 0.01 0.00 0.01 0.01 0.01 0.01 0.01 0.01 0.01 0.01 0.02 0.02 0.01 0.01 0.00 0.01 0.01 0.02 0.03 0.02 0.02 0.02 0.01 0.02 0.02 0.01 0.01 0.00 0.01 0.01 0.00 0.00
0.01 0.01 0.01 0.01 0.01 0.02 0.03 0.05 0.04 0.02 0.01 0.01 0.01 0.01 0.01 0.01 0.01 0.01 0.01 0.01 0.01 0.02 0.02 0.01 0.01 0.01 0.01 0.02 0.02 0.02 0.02 0.02 0.02 0.02 0.02 0.02 0.01 0.01 0.01 0.01 0.01 0.00 0.00
0.01 0.01 0.01 0.01 0.01 0.03 0.04 0.03 0.02 0.01 0.01 0.01 0.01 0.01 0.01 0.01 0.01 0.01 0.01 0.01 0.01 0.03 0.04 0.02 0.01 0.01 0.02 0.02 0.02 0.02 0.03 0.03 0.02 0.02 0.02 0.02 0.02 0.01 0.01 0.01 0.01 0.01 0.01
0.01 0.01 0.02 0.02 0.03 0.03 0.03 0.02 0.03 0.02 0.01 0.01 0.02 0.01 0.01 0.01 0.01 0.01 0.01 0.01 0.01 0.02 0.05 0.04 0.02 0.02 0.02 0.02 0.02 0.02 0.03 0.03 0.03 0.02 0.02 0.04 0.04 0.05 0.05 0.03 0.02 0.02 0.02
MSLP
1017.67 1017.71 1017.74 1017.78 1017.85 1017.95 1018.08 1018.22 1018.36 1018.47 1018.57 1018.64 1018.69 1018.73 1018.75 1018.72 1018.59 1018.30 1017.79 1017.03 1016.00 1014.76 1013.39 1012.00 1010.76 1009.77 1009.13 1008.88 1008.99 1009.40 1010.01 1010.69 1011.36 1011.94 1012.40 1012.74 1013.00 1013.22 1013.43 1013.66 1013.89 1014.12 1014.33
1018.06 1018.12 1018.18 1018.26 1018.38 1018.53 1018.70 1018.87 1019.03 1019.16 1019.26 1019.34 1019.40 1019.45 1019.49 1019.46 1019.34 1019.04 1018.51 1017.72 1016.66 1015.38 1013.96 1012.54 1011.24 1010.20 1009.50 1009.19 1009.24 1009.59 1010.15 1010.81 1011.48 1012.09 1012.59 1013.01 1013.35 1013.65 1013.93 1014.21 1014.49 1014.75 1014.99
1018.37 1018.45 1018.55 1018.69 1018.87 1019.07 1019.30 1019.51 1019.70 1019.85 1019.96 1020.06 1020.14 1020.20 1020.25 1020.25 1020.14 1019.86 1019.36 1018.59 1017.56 1016.30 1014.92 1013.51 1012.22 1011.16 1010.43 1010.06 1010.03 1010.30 1010.77 1011.36 1011.97 1012.55 1013.06 1013.49 1013.87 1014.21 1014.54 1014.87 1015.18 1015.47 1015.71
1018.62 1018.71 1018.85 1019.04 1019.29 1019.56 1019.84 1020.10 1020.32 1020.49 1020.62 1020.73 1020.83 1020.92 1020.99 1021.03 1020.97 1020.74 1020.30 1019.61 1018.67 1017.51 1016.21 1014.88 1013.64 1012.61 1011.87 1011.44 1011.33 1011.49 1011.84 1012.31 1012.82 1013.32 1013.77 1014.18 1014.55 1014.90 1015.24 1015.58 1015.91 1016.20 1016.46
1018.81 1018.91 1019.08 1019.32 1019.62 1019.95 1020.28 1020.58 1020.82 1021.01 1021.16 1021.28 1021.40 1021.52 1021.64 1021.73 1021.74 1021.61 1021.28 1020.72 1019.91 1018.90 1017.74 1016.54 1015.40 1014.42 1013.68 1013.21 1013.01 1013.05 1013.26 1013.58 1013.96 1014.34 1014.70 1015.03 1015.36 1015.68 1016.01 1016.33 1016.64 1016.93 1017.17
1018.98 1019.07 1019.26 1019.53 1019.87 1020.23 1020.58 1020.90 1021.16 1021.35 1021.51 1021.64 1021.78 1021.94 1022.12 1022.30 1022.41 1022.40 1022.22 1021.82 1021.20 1020.37 1019.39 1018.34 1017.32 1016.42 1015.70 1015.20 1014.92 1014.84 1014.90 1015.07 1015.29 1015.53 1015.77 1016.02 1016.27 1016.53 1016.81 1017.09 1017.37 1017.62 1017.84
1019.14 1019.21 1019.39 1019.67 1020.01 1020.38 1020.74 1021.05 1021.29 1021.48 1021.64 1021.78 1021.95 1022.16 1022.41 1022.68 1022.91 1023.05 1023.04 1022.83 1022.40 1021.78 1020.99 1020.12 1019.24 1018.43 1017.74 1017.22 1016.87 1016.68 1016.61 1016.62 1016.70 1016.81 1016.93 1017.08 1017.24 1017.43 1017.64 1017.87 1018.09 1018.30 1018.47
1019.31 1019.35 1019.51 1019.76 1020.08 1020.43 1020.75 1021.03 1021.25 1021.42 1021.55 1021.71 1021.90 1022.16 1022.49 1022.85 1023.21 1023.50 1023.66 1023.65 1023.43 1023.01 1022.42 1021.73 1020.99 1020.27 1019.64 1019.11 1018.71 1018.43 1018.25 1018.14 1018.10 1018.09 1018.11 1018.17 1018.26 1018.37 1018.51 1018.67 1018.83 1018.97 1019.10
1019.50 1019.50 1019.61 1019.83 1020.10 1020.40 1020.67 1020.90 1021.07 1021.20 1021.32 1021.47 1021.68 1021.98 1022.38 1022.83 1023.31 1023.74 1024.06 1024.22 1024.19 1023.96 1023.57 1023.05 1022.45 1021.84 1021.26 1020.75 1020.32 1019.99 1019.73 1019.54 1019.40 1019.32 1019.27 1019.25 1019.28 1019.33 1019.41 1019.51 1019.60 1019.68 1019.75
1019.71 1019.67 1019.74 1019.89 1020.11 1020.34 1020.55 1020.72 1020.83 1020.92 1021.01 1021.14 1021.36 1021.69 1022.13 1022.65 1023.21 1023.75 1024.20 1024.51 1024.65 1024.60 1024.38 1024.02 1023.56 1023.06 1022.56 1022.09 1021.67 1021.31 1021.02 1020.77 1020.59 1020.45 1020.35 1020.30 1020.28 1020.30 1020.33 1020.38 1020.42 1020.44 1020.45
1019.92 1019.84 1019.87 1019.98 1020.14 1020.31 1020.45 1020.56 1020.62 1020.66 1020.71 1020.82 1021.03 1021.36 1021.81 1022.36 1022.97 1023.57 1024.11 1024.54 1024.81 1024.92 1024.86 1024.66 1024.35 1023.98 1023.57 1023.16 1022.78 1022.43 1022.12 1021.86 1021.65 1021.49 1021.37 1021.30 1021.26 1021.25 1021.26 1021.27 1021.27 1021.25 1021.21
1020.10 1020.01 1020.01 1020.08 1020.20 1020.31 1020.41 1020.46 1020.47 1020.47 1020.49 1020.57 1020.75 1021.06 1021.48 1022.02 1022.63 1023.25 1023.84 1024.34 1024.72 1024.96 1025.06 1025.02 1024.87 1024.63 1024.35 1024.03 1023.70 1023.39 1023.10 1022.84 1022.61 1022.44 1022.31 1022.23 1022.18 1022.16 1022.16 1022.15 1022.13 1022.08 1022.01
1020.22 1020.14 1020.13 1020.19 1020.27 1020.36 1020.42 1020.44 1020.42 1020.39 1020.38 1020.42 1020.56 1020.81 1021.19 1021.67 1022.24 1022.84 1023.44 1023.99 1024.45 1024.80 1025.04 1025.17 1025.19 1025.11 1024.96 1024.76 1024.52 1024.26 1024.00 1023.74 1023.52 1023.34 1023.20 1023.10 1023.05 1023.03 1023.02 1023.00 1022.97 1022.91 1022.83
1020.26 1020.20 1020.20 1020.25 1020.33 1020.41 1020.46 1020.47 1020.44 1020.40 1020.36 1020.37 1020.46 1020.65 1020.95 1021.35 1021.84 1022.39 1022.97 1023.53 1024.06 1024.52 1024.90 1025.19 1025.39 1025.49 1025.50 1025.43 1025.29 1025.10 1024.87 1024.63 1024.40 1024.20 1024.04 1023.93 1023.86 1023.83 1023.82 1023.80 1023.78 1023.72 1023.63
1020.19 1020.16 1020.18 1020.25 1020.33 1020.42 1020.48 1020.50 1020.49 1020.44 1020.40 1020.38 1020.42 1020.54 1020.76 1021.07 1021.47 1021.95 1022.49 1023.05 1023.62 1024.17 1024.69 1025.14 1025.52 1025.80 1025.99 1026.06 1026.03 1025.92 1025.73 1025.51 1025.27 1025.05 1024.86 1024.72 1024.63 1024.59 1024.57 1024.56 1024.53 1024.48 1024.40
1020.02 1020.02 1020.06 1020.15 1020.25 1020.36 1020.44 1020.48 1020.49 1020.46 1020.43 1020.40 1020.40 1020.47 1020.61 1020.84 1021.15 1021.56 1022.04 1022.59 1023.20 1023.83 1024.46 1025.07 1025.61 1026.07 1026.42 1026.64 1026.74 1026.70 1026.57 1026.37 1026.13 1025.88 1025.67 1025.50 1025.38 1025.32 1025.28 1025.27 1025.25 1025.21 1025.13
1019.79 1019.80 1019.87 1019.97 1020.08 1020.20 1020.31 1020.38 1020.41 1020.41 1020.40 1020.37 1020.37 1020.40 1020.49 1020.64 1020.89 1021.23 1021.66 1022.20 1022.81 1023.50 1024.23 1024.96 1025.65 1026.27 1026.77 1027.13 1027.34 1027.40 1027.34 1027.17 1026.94 1026.70 1026.47 1026.28 1026.14 1026.05 1026.00 1025.97 1025.94 1025.90 1025.83
1019.55 1019.57 1019.64 1019.74 1019.86 1019.98 1020.09 1020.18 1020.24 1020.27 1020.28 1020.28 1020.28 1020.31 1020.37 1020.48 1020.68 1020.97 1021.36 1021.87 1022.48 1023.20 1023.98 1024.79 1025.59 1026.33 1026.96 1027.45 1027.77 1027.94 1027.95 1027.86 1027.68 1027.46 1027.24 1027.05 1026.90 1026.80 1026.73 1026.68 1026.64 1026.57 1026.49
1019.38 1019.40 1019.45 1019.54 1019.64 1019.74 1019.84 1019.93 1019.99 1020.05 1020.08 1020.11 1020.14 1020.18 1020.24 1020.35 1020.52 1020.77 1021.13 1021.60 1022.20 1022.91 1023.70 1024.55 1025.41 1026.22 1026.94 1027.53 1027.97 1028.24 1028.36 1028.36 1028.27 1028.12 1027.96 1027.80 1027.67 1027.57 1027.49 1027.41 1027.34 1027.25 1027.13
1019.34 1019.35 1019.38 1019.43 1019.49 1019.56 1019.62 1019.68 1019.74 1019.79 1019.84 1019.90 1019.96 1020.03 1020.11 1020.23 1020.40 1020.63 1020.96 1021.40 1021.95 1022.61 1023.38 1024.21 1025.07 1025.91 1026.68 1027.35 1027.88 1028.27 1028.51 1028.64 1028.67 1028.64 1028.57 1028.49 1028.41 1028.33 1028.25 1028.16 1028.05 1027.91 1027.75
1019.47 1019.47 1019.48 1019.49 1019.49 1019.50 1019.50 1019.50 1019.52 1019.55 1019.60 1019.67 1019.76 1019.86 1019.98 1020.13 1020.31 1020.54 1020.84 1021.23 1021.72 1022.32 1023.01 1023.78 1024.59 1025.41 1026.19 1026.90 1027.51 1028.01 1028.39 1028.67 1028.85 1028.97 1029.04 1029.07 1029.07 1029.04 1028.98 1028.88 1028.73 1028.55 1028.33
1019.80 1019.79 1019.77 1019.73 1019.67 1019.60 1019.52 1019.45 1019.40 1019.38 1019.40 1019.47 1019.57 1019.70 1019.86 1020.04 1020.24 1020.47 1020.75 1021.10 1021.52 1022.02 1022.62 1023.29 1024.02 1024.78 1025.53 1026.25 1026.92 1027.51 1028.02 1028.45 1028.81 1029.10 1029.33 1029.49 1029.60 1029.64 1029.62 1029.52 1029.35 1029.13 1028.87
1020.28 1020.27 1020.23 1020.15 1020.02 1019.87 1019.70 1019.53 1019.40 1019.31 1019.28 1019.32 1019.42 1019.57 1019.75 1019.96 1020.18 1020.43 1020.69 1021.00 1021.35 1021.77 1022.25 1022.81 1023.43 1024.10 1024.80 1025.50 1026.19 1026.85 1027.47 1028.04 1028.56 1029.01 1029.40 1029.71 1029.94 1030.07 1030.10 1030.03 1029.86 1029.62 1029.33
1020.85 1020.85 1020.80 1020.68 1020.51 1020.28 1020.01 1019.75 1019.52 1019.34 1019.25 1019.24 1019.32 1019.46 1019.66 1019.90 1020.15 1020.40 1020.67 1020.94 1021.24 1021.58 1021.97 1022.41 1022.92 1023.49 1024.11 1024.77 1025.45 1026.15 1026.84 1027.51 1028.15 1028.74 1029.27 1029.71 1030.05 1030.28 1030.38 1030.35 1030.22 1029.99 1029.71
1021.44 1021.45 1021.40 1021.26 1021.04 1020.74 1020.40 1020.05 1019.72 1019.46 1019.29 1019.23 1019.27 1019.40 1019.60 1019.85 1020.12 1020.40 1020.67 1020.94 1021.21 1021.49 1021.81 1022.16 1022.57 1023.05 1023.58 1024.17 1024.82 1025.51 1026.22 1026.94 1027.66 1028.34 1028.96 1029.50 1029.93 1030.24 1030.42 1030.46 1030.38 1030.21 1029.98
1021.96 1021.99 1021.95 1021.80 1021.55 1021.21 1020.80 1020.38 1019.98 1019.64 1019.40 1019.27 1019.27 1019.37 1019.57 1019.82 1020.11 1020.42 1020.71 1020.99 1021.26 1021.52 1021.79 1022.09 1022.43 1022.82 1023.27 1023.79 1024.37 1025.01 1025.70 1026.42 1027.15 1027.86 1028.52 1029.11 1029.61 1029.98 1030.23 1030.35 1030.35 1030.27 1030.12
Thickness
5722 5721 5721 5721 5720 5720 5719 5718 5718 5718 5717 5717 5716 5716 5715 5715 5715 5715 5715 5716 5717 5717 5718 5719 5719 5718 5718 5717 5716 5715 5715 5714 5714 5714 5715 5715 5716 5716 5716 5717 5718 5718 5719
5720 5719 5718 5717 5717 5716 5716 5715 5715 5714 5713 5713 5712 5712 5711 5711 5710 5710 5710 5711 5711 5712 5713 5713 5713 5713 5713 5712 5711 5710 5709 5709 5709 5709 5709 5709 5709 5710 5710 5711 5712 5713 5713
5717 5716 5715 5714 5714 5713 5712 5711 5710 5710 5709 5708 5707 5707 5706 5706 5706 5706 5706 5706 5706 5707 5707 5708 5708 5708 5707 5706 5705 5704 5703 5704 5704 5703 5703 5703 5703 5704 5704 5705 5706 5706 5707
5714 5713 5712 5711 5711 5710 5709 5708 5706 5705 5703 5702 5702 5702 5702 5702 5701 5701 5701 5701 5701 5701 5701 5701 5702 5702 5702 5701 5700 5699 5698 5698 5698 5698 5697 5698 5698 5698 5699 5699 5700 5701 5701
5711 5711 5710 5709 5708 5707 5706 5705 5702 5701 5699 5698 5698 5697 5697 5697 5697 5697 5696 5696 5696 5696 5696 5696 5696 5696 5696 5695 5695 5694 5694 5693 5693 5693 5693 5693 5693 5694 5695 5694 5694 5695 5695
5708 5708 5707 5706 5705 5704 5702 5700 5698 5698 5696 5695 5695 5693 5692 5692 5692 5692 5692 5691 5691 5691 5691 5691 5691 5690 5690 5690 5689 5689 5689 5689 5688 5687 5688 5688 5688 5689 5690 5689 5689 5689 5689
5705 5705 5703 5702 5702 5700 5698 5697 5696 5694 5692 5692 5689 5685 5686 5687 5687 5687 5687 5687 5687 5687 5686 5686 5685 5685 5684 5684 5684 5684 5684 5684 5683 5683 5683 5683 5683 5682 5683 5683 5683 5683 5683
5703 5702 5701 5699 5698 5697 5695 5694 5693 5690 5689 5689 5685 5680 5676 5677 5681 5683 5683 5683 5682 5682 5682 5681 5680 5679 5679 5679 5679 5679 5679 5678 5678 5678 5678 5678 5678 5677 5677 5677 5676 5676 5676
5701 5700 5698 5697 5696 5694 5692 5691 5690 5688 5685 5685 5685 5680 5673 5669 5671 5676 5678 5678 5678 5678 5677 5676 5676 5675 5675 5674 5674 5674 5674 5674 5674 5674 5675 5674 5673 5672 5672 5671 5671 5670 5670
5698 5697 5696 5695 5693 5692 5691 5690 5689 5687 5685 5682 5682 5682 5679 5676 5670 5667 5671 5673 5674 5673 5673 5673 5672 5671 5671 5670 5670 5670 5670 5670 5671 5671 5672 5672 5670 5668 5666 5666 5665 5664 5663
5696 5695 5694 5692 5691 5690 5689 5688 5687 5686 5684 5682 5680 5679 5677 5674 5672 5667 5664 5666 5668 5669 5669 5669 5668 5668 5667 5666 5666 5666 5666 5666 5666 5667 5668 5668 5666 5663 5661 5660 5660 5659 5658
5692 5692 5691 5690 5689 5688 5687 5686 5685 5684 5682 5681 5680 5678 5676 5673 5670 5667 5663 5661 5661 5663 5664 5665 5664 5664 5663 5662 5662 5662 5662 5662 5662 5662 5662 5662 5660 5658 5657 5656 5654 5653 5652
5688 5689 5689 5688 5686 5686 5685 5684 5682 5681 5680 5679 5677 5676 5675 5674 5672 5669 5664 5659 5658 5659 5660 5660 5661 5660 5659 5659 5658 5658 5657 5657 5657 5657 5656 5655 5654 5653 5652 5651 5650 5648 5647
5687 5687 5687 5686 5684 5684 5683 5681 5680 5678 5677 5676 5676 5674 5673 5672 5671 5669 5664 5659 5655 5654 5654 5655 5656 5656 5655 5655 5655 5654 5653 5653 5653 5652 5652 5651 5649 5648 5647 5646 5645 5643 5642
5687 5686 5685 5683 5682 5681 5680 5678 5676 5675 5674 5673 5672 5671 5670 5669 5668 5667 5665 5662 5657 5651 5650 5651 5651 5652 5652 5652 5651 5650 5649 5649 5648 5647 5646 5645 5644 5643 5642 5641 5640 5638 5637
5685 5683 5682 5681 5679 5677 5676 5675 5673 5672 5670 5669 5668 5667 5666 5666 5665 5664 5662 5660 5658 5654 5649 5649 5648 5649 5648 5648 5647 5646 5646 5645 5644 5643 5642 5641 5640 5638 5637 5636 5634 5633 5632
5682 5680 5679 5677 5675 5674 5673 5671 5669 5668 5666 5665 5664 5663 5662 5662 5661 5659 5658 5657 5655 5652 5647 5645 5645 5645 5643 5643 5642 5641 5641 5640 5639 5638 5637 5636 5634 5633 5632 5630 5629 5628 5626
5679 5677 5676 5674 5672 5671 5669 5667 5665 5664 5662 5660 5659 5658 5657 5657 5656 5655 5653 5652 5650 5649 5645 5641 5639 5639 5638 5638 5637 5636 5636 5634 5633 5632 5631 5630 5629 5627 5626 5624 5623 5622 5620
5675 5673 5672 5670 5669 5667 5665 5664 5662 5660 5658 5657 5655 5654 5653 5652 5650 5649 5649 5647 5646 5645 5642 5638 5635 5633 5632 5631 5630 5630 5629 5628 5628 5626 5625 5624 5623 5621 5620 5618 5617 5616 5614
5671 5669 5668 5667 5665 5664 5662 5660 5658 5656 5654 5653 5651 5650 5649 5647 5646 5645 5643 5642 5641 5638 5635 5632 5629 5627 5626 5625 5623 5621 5621 5620 5620 5620 5619 5618 5616 5615 5613 5612 5611 5609 5608
5668 5666 5664 5663 5662 5660 5658 5656 5654 5652 5649 5647 5646 5645 5644 5644 5643 5641 5639 5637 5635 5631 5628 5625 5622 5620 5618 5616 5615 5615 5614 5613 5613 5613 5611 5611 5609 5608 5607 5606 5604 5603 5601
5663 5662 5660 5658 5657 5656 5655 5653 5650 5647 5644 5642 5640 5639 5639 5638 5637 5636 5635 5634 5632 5628 5623 5620 5617 5615 5613 5612 5610 5608 5605 5604 5604 5605 5603 5603 5602 5601 5601 5600 5599 5598 5596
5659 5657 5656 5654 5652 5651 5650 5648 5646 5642 5639 5637 5635 5633 5633 5632 5631 5629 5628 5627 5626 5625 5623 5619 5615 5612 5610 5608 5605 5601 5599 5597 5597 5598 5596 5595 5595 5595 5595 5595 5594 5593 5591
5654 5653 5651 5650 5648 5647 5646 5643 5641 5637 5634 5632 5630 5628 5626 5625 5624 5623 5621 5619 5618 5617 5616 5615 5613 5611 5609 5606 5602 5599 5596 5592 5591 5591 5590 5587 5588 5588 5590 5589 5589 5588 5586
5650 5649 5647 5645 5643 5641 5641 5639 5636 5631 5628 5625 5624 5623 5621 5619 5620 5618 5615 5612 5610 5610 5610 5609 5608 5606 5603 5600 5597 5592 5587 5584 5582 5582 5582 5580 5580 5580 5582 5583 5583 5582 5580
5646 5644 5642 5640 5638 5636 5635 5633 5631 5626 5622 5619 5618 5617 5616 5615 5614 5613 5609 5606 5604 5603 5602 5601 5599 5598 5595 5593 5590 5588 5584 5579 5576 5575 5576 5574 5573 5572 5573 5576 5576 5576 5574